| time (UTC) | temp C | wind direction | speed KPH | gust KPH | rain 1hr cm | rain 24hr cm | rain mn cm | humidity % | barometer mb |
| 20260507012702 | 11 | 0 | 1.6 | 6.4 | 0.00 | 0.00 | 0.00 | 33 | 960.3 |
| 20260507012202 | 11 | 160 | 3.2 | 8.0 | 0.00 | 0.00 | 0.00 | 33 | 960.3 |
| 20260507011700 | 11 | 295 | 3.2 | 8.0 | 0.00 | 0.00 | 0.00 | 32 | 960.3 |
| 20260507011159 | 11 | 304 | 4.8 | 11.3 | 0.00 | 0.00 | 0.00 | 32 | 960.3 |
| 20260507010659 | 11 | 280 | 6.4 | 17.7 | 0.00 | 0.00 | 0.00 | 31 | 960.3 |
| 20260507010200 | 11 | 310 | 6.4 | 17.7 | 0.00 | 0.00 | 0.00 | 31 | 960.4 |
| 20260507005700 | 11 | 301 | 6.4 | 14.5 | 0.00 | 0.00 | 0.00 | 30 | 960.3 |
| 20260507005200 | 12 | 310 | 8.0 | 16.1 | 0.00 | 0.00 | 0.00 | 30 | 960.3 |
| 20260507004700 | 12 | 326 | 6.4 | 16.1 | 0.00 | 0.00 | 0.00 | 30 | 960.3 |
| 20260507004200 | 12 | 302 | 6.4 | 16.1 | 0.00 | 0.00 | 0.00 | 30 | 960.3 |
| 20260507003700 | 12 | 305 | 6.4 | 16.1 | 0.00 | 0.00 | 0.00 | 30 | 960.3 |
| 20260507003200 | 12 | 309 | 6.4 | 12.9 | 0.00 | 0.00 | 0.00 | 30 | 960.4 |
| 20260507002700 | 12 | 314 | 6.4 | 11.3 | 0.00 | 0.00 | 0.00 | 30 | 960.4 |
| 20260507002200 | 12 | 273 | 8.0 | 19.3 | 0.00 | 0.00 | 0.00 | 29 | 960.4 |
| 20260507001700 | 12 | 313 | 9.7 | 19.3 | 0.00 | 0.00 | 0.00 | 30 | 960.5 |
| 20260507001201 | 12 | 259 | 9.7 | 14.5 | 0.00 | 0.00 | 0.00 | 30 | 960.5 |
| 20260507000658 | 12 | 301 | 8.0 | 14.5 | 0.00 | 0.00 | 0.00 | 30 | 960.5 |
| 20260507000158 | 12 | 315 | 8.0 | 17.7 | 0.00 | 0.00 | 0.00 | 30 | 960.5 |
| 20260506235657 | 12 | 310 | 8.0 | 19.3 | 0.00 | 0.00 | 0.00 | 30 | 960.6 |
| 20260506235157 | 12 | 337 | 9.7 | 19.3 | 0.00 | 0.00 | 0.00 | 30 | 960.7 |
| 20260506234658 | 12 | 4 | 8.0 | 17.7 | 0.00 | 0.00 | 0.00 | 29 | 960.7 |
| 20260506234158 | 12 | 302 | 6.4 | 17.7 | 0.00 | 0.00 | 0.00 | 30 | 960.6 |
| 20260506233657 | 13 | 301 | 6.4 | 14.5 | 0.00 | 0.00 | 0.00 | 30 | 960.6 |
| 20260506233158 | 13 | 306 | 6.4 | 14.5 | 0.00 | 0.00 | 0.00 | 29 | 960.6 |
| 20260506232658 | 13 | 281 | 6.4 | 14.5 | 0.00 | 0.00 | 0.00 | 30 | 960.7 |
| 20260506232158 | 13 | 316 | 8.0 | 14.5 | 0.00 | 0.00 | 0.00 | 29 | 960.8 |
| 20260506231658 | 13 | 320 | 6.4 | 14.5 | 0.00 | 0.00 | 0.00 | 29 | 960.7 |
| 20260506231158 | 13 | 315 | 8.0 | 20.9 | 0.00 | 0.00 | 0.00 | 28 | 960.5 |
| 20260506230658 | 13 | 316 | 8.0 | 20.9 | 0.00 | 0.00 | 0.00 | 29 | 960.5 |
| 20260506230158 | 12 | 354 | 6.4 | 14.5 | 0.00 | 0.00 | 0.00 | 30 | 960.7 |
| 20260506225812 | 12 | 300 | 6.4 | 16.1 | 0.00 | 0.00 | 0.00 | 30 | 960.7 |
| 20260506225155 | 12 | 316 | 9.7 | 17.7 | 0.00 | 0.00 | 0.00 | 29 | 960.8 |
| 20260506224652 | 12 | 320 | 8.0 | 17.7 | 0.00 | 0.00 | 0.00 | 29 | 960.8 |
| 20260506224152 | 12 | 291 | 8.0 | 14.5 | 0.00 | 0.00 | 0.00 | 29 | 960.9 |
| 20260506223653 | 12 | 319 | 8.0 | 14.5 | 0.00 | 0.00 | 0.00 | 29 | 961.0 |
| 20260506223152 | 13 | 344 | 8.0 | 19.3 | 0.00 | 0.00 | 0.00 | 30 | 961.0 |
| 20260506222650 | 13 | 305 | 9.7 | 19.3 | 0.00 | 0.00 | 0.00 | 29 | 961.1 |
| 20260506222150 | 13 | 298 | 9.7 | 17.7 | 0.00 | 0.00 | 0.00 | 29 | 961.0 |
| 20260506221650 | 13 | 310 | 11.3 | 17.7 | 0.00 | 0.00 | 0.00 | 29 | 960.8 |
| 20260506221147 | 12 | 309 | 9.7 | 17.7 | 0.00 | 0.00 | 0.00 | 29 | 960.9 |
| 20260506220647 | 13 | 7 | 9.7 | 22.5 | 0.00 | 0.00 | 0.00 | 29 | 961.2 |
| 20260506220147 | 13 | 319 | 9.7 | 22.5 | 0.00 | 0.00 | 0.00 | 29 | 961.2 |
| 20260506215648 | 13 | 307 | 9.7 | 16.1 | 0.00 | 0.00 | 0.00 | 29 | 961.1 |
| 20260506215147 | 13 | 297 | 9.7 | 22.5 | 0.00 | 0.00 | 0.00 | 30 | 961.2 |
| 20260506214647 | 13 | 323 | 9.7 | 22.5 | 0.00 | 0.00 | 0.00 | 28 | 961.1 |
| 20260506214147 | 13 | 308 | 8.0 | 20.9 | 0.00 | 0.00 | 0.00 | 29 | 961.0 |
| 20260506213648 | 13 | 285 | 9.7 | 20.9 | 0.00 | 0.00 | 0.00 | 28 | 961.3 |
| 20260506213147 | 13 | 317 | 9.7 | 17.7 | 0.00 | 0.00 | 0.00 | 29 | 961.1 |
| 20260506212647 | 12 | 291 | 8.0 | 17.7 | 0.00 | 0.00 | 0.00 | 30 | 961.2 |
| 20260506212145 | 12 | 302 | 9.7 | 22.5 | 0.00 | 0.00 | 0.00 | 30 | 961.5 |
| 20260506211645 | 12 | 312 | 9.7 | 22.5 | 0.00 | 0.00 | 0.00 | 31 | 961.6 |
| 20260506211145 | 12 | 186 | 9.7 | 17.7 | 0.00 | 0.00 | 0.00 | 31 | 961.5 |
| 20260506210644 | 12 | 308 | 8.0 | 14.5 | 0.00 | 0.00 | 0.00 | 32 | 961.7 |
| 20260506210145 | 12 | 1 | 9.7 | 20.9 | 0.00 | 0.00 | 0.00 | 32 | 961.9 |
| 20260506205645 | 12 | 254 | 9.7 | 20.9 | 0.00 | 0.00 | 0.00 | 32 | 961.9 |
| 20260506205144 | 12 | 292 | 8.0 | 19.3 | 0.00 | 0.00 | 0.00 | 32 | 961.6 |
| 20260506204644 | 12 | 312 | 8.0 | 16.1 | 0.00 | 0.00 | 0.00 | 32 | 962.0 |
| 20260506204144 | 12 | 181 | 8.0 | 17.7 | 0.00 | 0.00 | 0.00 | 33 | 962.0 |
| 20260506203645 | 12 | 302 | 8.0 | 17.7 | 0.00 | 0.00 | 0.00 | 33 | 962.1 |
| 20260506203145 | 11 | 330 | 8.0 | 19.3 | 0.00 | 0.00 | 0.00 | 34 | 962.2 |
| 20260506202645 | 12 | 310 | 9.7 | 19.3 | 0.00 | 0.00 | 0.00 | 33 | 962.3 |
| 20260506202256 | 12 | 304 | 9.7 | 22.5 | 0.00 | 0.00 | 0.00 | 34 | 962.2 |
| 20260506201646 | 12 | 333 | 9.7 | 22.5 | 0.00 | 0.00 | 0.00 | 34 | 962.2 |
| 20260506201142 | 12 | 317 | 9.7 | 19.3 | 0.00 | 0.00 | 0.00 | 34 | 962.3 |
| 20260506200643 | 12 | 322 | 9.7 | 19.3 | 0.00 | 0.00 | 0.00 | 34 | 962.3 |
| 20260506200142 | 12 | 352 | 8.0 | 17.7 | 0.00 | 0.00 | 0.00 | 34 | 962.2 |
| 20260506195642 | 12 | 325 | 8.0 | 17.7 | 0.00 | 0.00 | 0.00 | 33 | 962.3 |
| 20260506195254 | 12 | 345 | 6.4 | 16.1 | 0.00 | 0.00 | 0.00 | 33 | 962.3 |
| 20260506194643 | 12 | 326 | 9.7 | 20.9 | 0.00 | 0.00 | 0.00 | 34 | 962.3 |
| 20260506194143 | 12 | 330 | 8.0 | 20.9 | 0.00 | 0.00 | 0.00 | 34 | 962.5 |
| 20260506193643 | 12 | 308 | 8.0 | 17.7 | 0.00 | 0.00 | 0.00 | 34 | 962.5 |
| 20260506193142 | 12 | 279 | 9.7 | 17.7 | 0.00 | 0.00 | 0.00 | 35 | 962.5 |
| 20260506192643 | 11 | 324 | 8.0 | 20.9 | 0.00 | 0.00 | 0.00 | 35 | 962.6 |
| 20260506192143 | 12 | 331 | 9.7 | 22.5 | 0.00 | 0.00 | 0.00 | 33 | 962.8 |
| 20260506191644 | 12 | 283 | 9.7 | 22.5 | 0.00 | 0.00 | 0.00 | 34 | 962.6 |
| 20260506191254 | 12 | 301 | 9.7 | 19.3 | 0.00 | 0.00 | 0.00 | 33 | 962.6 |
| 20260506190644 | 12 | 314 | 8.0 | 17.7 | 0.00 | 0.00 | 0.00 | 34 | 962.3 |
| 20260506190255 | 11 | 169 | 8.0 | 20.9 | 0.00 | 0.00 | 0.00 | 34 | 962.5 |
| 20260506185643 | 11 | 288 | 9.7 | 20.9 | 0.00 | 0.00 | 0.00 | 35 | 962.7 |
| 20260506185143 | 11 | 327 | 9.7 | 22.5 | 0.00 | 0.00 | 0.00 | 35 | 962.7 |
| 20260506184641 | 11 | 310 | 9.7 | 22.5 | 0.00 | 0.00 | 0.00 | 34 | 963.0 |
| 20260506184248 | 11 | 329 | 9.7 | 22.5 | 0.00 | 0.00 | 0.00 | 37 | 962.6 |
| 20260506183640 | 11 | 325 | 11.3 | 25.7 | 0.00 | 0.00 | 0.00 | 36 | 962.9 |
| 20260506183141 | 11 | 342 | 11.3 | 25.7 | 0.00 | 0.00 | 0.00 | 36 | 963.1 |
| 20260506182641 | 11 | 60 | 9.7 | 22.5 | 0.00 | 0.00 | 0.00 | 36 | 963.4 |
| 20260506182141 | 11 | 287 | 8.0 | 19.3 | 0.00 | 0.00 | 0.00 | 36 | 963.1 |
| 20260506181640 | 11 | 334 | 9.7 | 22.5 | 0.00 | 0.00 | 0.00 | 37 | 962.8 |
| 20260506181141 | 11 | 309 | 9.7 | 22.5 | 0.00 | 0.00 | 0.00 | 37 | 963.3 |
| 20260506180641 | 11 | 301 | 8.0 | 19.3 | 0.00 | 0.00 | 0.00 | 37 | 963.3 |
| 20260506180141 | 11 | 290 | 9.7 | 17.7 | 0.00 | 0.00 | 0.00 | 37 | 963.3 |
| 20260506175750 | 11 | 303 | 9.7 | 24.1 | 0.00 | 0.00 | 0.00 | 37 | 963.3 |
| 20260506175141 | 11 | 281 | 9.7 | 24.1 | 0.00 | 0.00 | 0.00 | 37 | 963.2 |
| 20260506174750 | 11 | 336 | 9.7 | 19.3 | 0.00 | 0.00 | 0.00 | 37 | 963.3 |
| 20260506174140 | 11 | 348 | 9.7 | 19.3 | 0.00 | 0.00 | 0.00 | 38 | 963.4 |
| 20260506173639 | 11 | 311 | 11.3 | 17.7 | 0.00 | 0.00 | 0.00 | 36 | 963.5 |
| 20260506173249 | 10 | 317 | 9.7 | 17.7 | 0.00 | 0.00 | 0.00 | 36 | 963.3 |
| 20260506172639 | 10 | 234 | 9.7 | 17.7 | 0.00 | 0.00 | 0.00 | 37 | 963.3 |
| 20260506172136 | 9 | 297 | 9.7 | 19.3 | 0.00 | 0.00 | 0.00 | 38 | 963.8 |
| 20260506171635 | 10 | 314 | 11.3 | 20.9 | 0.00 | 0.00 | 0.00 | 38 | 963.8 |
| 20260506171136 | 10 | 323 | 11.3 | 20.9 | 0.00 | 0.00 | 0.00 | 38 | 963.9 |
| 20260506170635 | 9 | 330 | 9.7 | 19.3 | 0.00 | 0.00 | 0.00 | 38 | 963.6 |
| 20260506170136 | 9 | 308 | 9.7 | 20.9 | 0.00 | 0.00 | 0.00 | 39 | 964.0 |
| 20260506165636 | 10 | 264 | 9.7 | 20.9 | 0.00 | 0.00 | 0.00 | 38 | 964.0 |
| 20260506165136 | 10 | 300 | 9.7 | 19.3 | 0.00 | 0.00 | 0.00 | 38 | 963.7 |
| 20260506164636 | 10 | 297 | 9.7 | 19.3 | 0.00 | 0.00 | 0.00 | 39 | 963.7 |
| 20260506164136 | 10 | 288 | 9.7 | 20.9 | 0.00 | 0.00 | 0.00 | 39 | 964.1 |
| 20260506163637 | 10 | 281 | 9.7 | 20.9 | 0.00 | 0.00 | 0.00 | 39 | 963.8 |
| 20260506163136 | 9 | 312 | 9.7 | 20.9 | 0.00 | 0.00 | 0.00 | 40 | 964.1 |
| 20260506162636 | 9 | 322 | 9.7 | 20.9 | 0.00 | 0.00 | 0.00 | 40 | 963.7 |
| 20260506162136 | 9 | 277 | 9.7 | 20.9 | 0.00 | 0.00 | 0.00 | 39 | 964.4 |
| 20260506161636 | 10 | 299 | 9.7 | 20.9 | 0.00 | 0.00 | 0.00 | 40 | 963.8 |
| 20260506161133 | 9 | 321 | 9.7 | 24.1 | 0.00 | 0.00 | 0.00 | 41 | 963.8 |
| 20260506160634 | 9 | 338 | 9.7 | 27.4 | 0.00 | 0.00 | 0.00 | 40 | 963.8 |
| 20260506160130 | 9 | 288 | 8.0 | 27.4 | 0.00 | 0.00 | 0.00 | 43 | 963.8 |
| 20260506155628 | 8 | 326 | 8.0 | 17.7 | 0.00 | 0.00 | 0.00 | 42 | 963.8 |
| 20260506155234 | 8 | 306 | 9.7 | 17.7 | 0.00 | 0.00 | 0.00 | 43 | 963.9 |
| 20260506154628 | 8 | 316 | 9.7 | 19.3 | 0.00 | 0.00 | 0.00 | 43 | 964.0 |
| 20260506154127 | 8 | 322 | 8.0 | 19.3 | 0.00 | 0.00 | 0.00 | 44 | 963.8 |
| 20260506153627 | 8 | 308 | 8.0 | 19.3 | 0.00 | 0.00 | 0.00 | 45 | 963.9 |
| 20260506153128 | 7 | 323 | 9.7 | 20.9 | 0.00 | 0.00 | 0.00 | 46 | 964.1 |
| 20260506152733 | 7 | 340 | 9.7 | 20.9 | 0.00 | 0.00 | 0.00 | 46 | 964.1 |
| 20260506152128 | 7 | 327 | 9.7 | 19.3 | 0.00 | 0.00 | 0.00 | 46 | 964.0 |
| 20260506151733 | 7 | 307 | 9.7 | 19.3 | 0.00 | 0.00 | 0.00 | 47 | 964.0 |
| 20260506151125 | 7 | 316 | 9.7 | 19.3 | 0.00 | 0.00 | 0.00 | 46 | 964.0 |
| 20260506150625 | 7 | 143 | 9.7 | 17.7 | 0.00 | 0.00 | 0.00 | 47 | 963.9 |
| 20260506150126 | 7 | 325 | 9.7 | 19.3 | 0.00 | 0.00 | 0.00 | 47 | 964.1 |
| 20260506145626 | 7 | 320 | 8.0 | 19.3 | 0.00 | 0.00 | 0.00 | 49 | 964.1 |
| 20260506145123 | 7 | 296 | 9.7 | 19.3 | 0.00 | 0.00 | 0.00 | 48 | 964.1 |
| 20260506144619 | 7 | 309 | 8.0 | 16.1 | 0.00 | 0.00 | 0.00 | 49 | 964.2 |
| 20260506144119 | 6 | 302 | 6.4 | 14.5 | 0.00 | 0.00 | 0.00 | 50 | 964.1 |
| 20260506143731 | 6 | 359 | 6.4 | 11.3 | 0.00 | 0.00 | 0.00 | 49 | 964.2 |
| 20260506143116 | 6 | 336 | 6.4 | 11.3 | 0.00 | 0.00 | 0.00 | 50 | 964.1 |
| 20260506142617 | 6 | 326 | 4.8 | 11.3 | 0.00 | 0.00 | 0.00 | 51 | 964.2 |
| 20260506142231 | 6 | 340 | 4.8 | 9.7 | 0.00 | 0.00 | 0.00 | 50 | 964.2 |
| 20260506141614 | 6 | 310 | 4.8 | 9.7 | 0.00 | 0.00 | 0.00 | 51 | 964.1 |
| 20260506141113 | 6 | 310 | 4.8 | 9.7 | 0.00 | 0.00 | 0.00 | 50 | 964.1 |
| 20260506140614 | 6 | 346 | 3.2 | 9.7 | 0.00 | 0.00 | 0.00 | 52 | 964.1 |
| 20260506140114 | 6 | 320 | 3.2 | 8.0 | 0.00 | 0.00 | 0.00 | 53 | 964.1 |
| 20260506135614 | 5 | 284 | 3.2 | 8.0 | 0.00 | 0.00 | 0.00 | 55 | 964.0 |
| 20260506135231 | 5 | 157 | 1.6 | 6.4 | 0.00 | 0.00 | 0.00 | 57 | 964.0 |
| 20260506134731 | 5 | 340 | 1.6 | 6.4 | 0.00 | 0.00 | 0.00 | 60 | 964.0 |
| 20260506134232 | 5 | 263 | 1.6 | 6.4 | 0.00 | 0.00 | 0.00 | 62 | 964.1 |
| 20260506133612 | 5 | 323 | 1.6 | 9.7 | 0.00 | 0.00 | 0.00 | 62 | 964.1 |
| 20260506133111 | 5 | 324 | 1.6 | 9.7 | 0.00 | 0.00 | 0.00 | 62 | 964.1 |
| 20260506132612 | 5 | 0 | 3.2 | 11.3 | 0.00 | 0.00 | 0.00 | 63 | 964.0 |
| 20260506132109 | 4 | 250 | 3.2 | 11.3 | 0.00 | 0.00 | 0.00 | 64 | 963.9 |
| 20260506131608 | 3 | 304 | 3.2 | 9.7 | 0.00 | 0.00 | 0.00 | 66 | 963.8 |
| 20260506131108 | 3 | 289 | 1.6 | 6.4 | 0.00 | 0.00 | 0.00 | 68 | 963.8 |
| 20260506130608 | 3 | 305 | 1.6 | 6.4 | 0.00 | 0.00 | 0.00 | 67 | 963.8 |
| 20260506130226 | 3 | 262 | 1.6 | 4.8 | 0.00 | 0.00 | 0.00 | 68 | 963.8 |
| 20260506125606 | 2 | 123 | 1.6 | 3.2 | 0.00 | 0.00 | 0.00 | 67 | 963.8 |
| 20260506125105 | 2 | 329 | 0.0 | 3.2 | 0.00 | 0.00 | 0.00 | 68 | 963.7 |
| 20260506124723 | 2 | 298 | 0.0 | 3.2 | 0.00 | 0.00 | 0.00 | 68 | 963.7 |
| 20260506124106 | 1 | 0 | 0.0 | 3.2 | 0.00 | 0.00 | 0.00 | 71 | 963.7 |
| 20260506123737 | 0 | 272 | 0.0 | 3.2 | 0.00 | 0.00 | 0.00 | 73 | 963.7 |
| 20260506123106 | 0 | 0 | 0.0 | 3.2 | 0.00 | 0.00 | 0.00 | 75 | 963.7 |
| 20260506122606 | 0 | 205 | 0.0 | 3.2 | 0.00 | 0.00 | 0.00 | 76 | 963.7 |
| 20260506122106 | 0 | 0 | 0.0 | 3.2 | 0.00 | 0.00 | 0.00 | 78 | 963.8 |
| 20260506121606 | -1 | 0 | 0.0 | 1.6 | 0.00 | 0.00 | 0.00 | 79 | 963.8 |
| 20260506121106 | -1 | 0 | 0.0 | 3.2 | 0.00 | 0.00 | 0.00 | 80 | 963.7 |
| 20260506120606 | -1 | 0 | 0.0 | 3.2 | 0.00 | 0.00 | 0.00 | 80 | 963.6 |
| 20260506120107 | -1 | 0 | 0.0 | 1.6 | 0.00 | 0.00 | 0.00 | 81 | 963.7 |
| 20260506115606 | -1 | 0 | 0.0 | 1.6 | 0.00 | 0.00 | 0.00 | 81 | 963.7 |
| 20260506115104 | -1 | 186 | 0.0 | 1.6 | 0.00 | 0.00 | 0.00 | 81 | 963.6 |
| 20260506114603 | -1 | 0 | 0.0 | 1.6 | 0.00 | 0.00 | 0.00 | 81 | 963.5 |
| 20260506114223 | -1 | 0 | 0.0 | 3.2 | 0.00 | 0.00 | 0.00 | 81 | 963.4 |
| 20260506113603 | -1 | 0 | 0.0 | 3.2 | 0.00 | 0.00 | 0.00 | 81 | 963.4 |
| 20260506113221 | -1 | 253 | 0.0 | 3.2 | 0.00 | 0.00 | 0.00 | 81 | 963.4 |
| 20260506112557 | -1 | 0 | 0.0 | 3.2 | 0.00 | 0.00 | 0.00 | 82 | 963.2 |
| 20260506112057 | -2 | 0 | 0.0 | 1.6 | 0.00 | 0.00 | 0.00 | 83 | 963.3 |
| 20260506111558 | -2 | 0 | 0.0 | 1.6 | 0.00 | 0.00 | 0.00 | 82 | 963.3 |
| 20260506111057 | -1 | 0 | 0.0 | 3.2 | 0.00 | 0.00 | 0.00 | 81 | 963.3 |
| 20260506110558 | -1 | 0 | 0.0 | 3.2 | 0.00 | 0.00 | 0.00 | 80 | 963.2 |
| 20260506110058 | -1 | 311 | 0.0 | 3.2 | 0.00 | 0.00 | 0.00 | 80 | 963.2 |
| 20260506105558 | -1 | 288 | 1.6 | 3.2 | 0.00 | 0.00 | 0.00 | 80 | 963.2 |
| 20260506105221 | -2 | 286 | 0.0 | 3.2 | 0.00 | 0.00 | 0.00 | 81 | 963.1 |
| 20260506104558 | -2 | 0 | 0.0 | 3.2 | 0.00 | 0.00 | 0.00 | 80 | 963.2 |
| 20260506104058 | -2 | 0 | 0.0 | 3.2 | 0.00 | 0.00 | 0.00 | 81 | 963.1 |
| 20260506103558 | -2 | 0 | 0.0 | 3.2 | 0.00 | 0.00 | 0.00 | 79 | 963.2 |
| 20260506103221 | -1 | 0 | 0.0 | 3.2 | 0.00 | 0.00 | 0.00 | 79 | 963.1 |
| 20260506102559 | -1 | 0 | 0.0 | 1.6 | 0.00 | 0.00 | 0.00 | 79 | 963.0 |
| 20260506101510 | -1 | 0 | 0.0 | 1.6 | 0.00 | 0.00 | 0.00 | 78 | 963.2 |
| 20260506101009 | -1 | 0 | 0.0 | 1.6 | 0.00 | 0.00 | 0.00 | 78 | 963.1 |
| 20260506100508 | -1 | 220 | 0.0 | 1.6 | 0.00 | 0.00 | 0.00 | 77 | 963.0 |
| 20260506100006 | -1 | 230 | 0.0 | 1.6 | 0.00 | 0.00 | 0.00 | 77 | 963.0 |
| 20260506095506 | -1 | 0 | 0.0 | 1.6 | 0.00 | 0.00 | 0.00 | 76 | 963.0 |
| 20260506095006 | -1 | 298 | 0.0 | 1.6 | 0.00 | 0.00 | 0.00 | 76 | 963.0 |
| 20260506092208 | 0 | 288 | 0.0 | 3.2 | 0.00 | 0.00 | 0.00 | 74 | 962.8 |
| 20260506071657 | 1 | 78 | 1.6 | 4.8 | 0.00 | 0.00 | 0.00 | 67 | 961.9 |
| 20260506071158 | 1 | 301 | 1.6 | 4.8 | 0.00 | 0.00 | 0.00 | 67 | 962.0 |
| 20260506050150 | 3 | 312 | 4.8 | 9.7 | 0.00 | 0.00 | 0.00 | 59 | 961.7 |
| 20260506044650 | 3 | 302 | 4.8 | 11.3 | 0.00 | 0.00 | 0.00 | 58 | 961.8 |
| 20260506042641 | 3 | 330 | 6.4 | 11.3 | 0.00 | 0.00 | 0.00 | 57 | 961.8 |
| 20260506040640 | 3 | 319 | 4.8 | 9.7 | 0.00 | 0.00 | 0.00 | 57 | 962.0 |
| 20260506033141 | 4 | 304 | 1.6 | 6.4 | 0.00 | 0.00 | 0.00 | 54 | 961.9 |
| 20260506030133 | 5 | 301 | 3.2 | 8.0 | 0.00 | 0.00 | 0.00 | 50 | 961.6 |
| 20260506025634 | 5 | 305 | 3.2 | 8.0 | 0.00 | 0.00 | 0.00 | 50 | 961.6 |
| 20260506024133 | 5 | 352 | 3.2 | 9.7 | 0.00 | 0.00 | 0.00 | 50 | 961.4 |
| 20260506023134 | 6 | 305 | 4.8 | 12.9 | 0.00 | 0.00 | 0.00 | 48 | 961.2 |
| 20260506015632 | 7 | 301 | 4.8 | 16.1 | 0.00 | 0.00 | 0.00 | 44 | 960.6 |
| 20260506014421 | 7 | 299 | 4.8 | 14.5 | 0.00 | 0.00 | 0.00 | 44 | 960.6 |
| 20260506013918 | 7 | 301 | 6.4 | 14.5 | 0.00 | 0.00 | 0.00 | 43 | 960.4 |
| 20260506013419 | 7 | 311 | 6.4 | 16.1 | 0.00 | 0.00 | 0.00 | 43 | 960.5 |
| 20260506012919 | 7 | 301 | 8.0 | 16.1 | 0.00 | 0.00 | 0.00 | 41 | 960.4 |